Date String (YYYY-MM-DD hh:mm:ss) UTC,Instrument flags,Ambient pressure (hPa),Sample flow (lpm),Bypass flow (lpm),Sample temperature (°C),Ambient temperature (°C),ASC tube jacket temperature (°C),LED temperature (°C),Box temperature (°C),Sample RH (%),Span deviation,Mass concentration (μg/m³),Mass concentration (μg/m³),Mass concentration (μg/m³)
DateTimeUTC,F1_M11,P_M11,Q1_M11,Q2_M11,T1_M11,T2_M11,T3_M11,T4_M11,T5_M11,U1_M11,ZSPAN_M11,X0_M11,X2_M11,X1_M11
2022-09-07 13:00:00,,0833.8,5.00,0.00,30.2,29.1,00.0,39.0,32.0,16.3,0003.9,0027.00,0014.36,0012.15
2022-09-07 13:01:00,,0833.8,5.01,0.00,30.2,29.1,00.0,39.0,32.0,16.3,0003.9,0027.63,0014.36,0012.12
2022-09-07 13:02:00,,0833.9,4.99,0.00,30.2,29.1,00.0,39.0,32.1,16.4,0003.9,0028.04,0014.32,0012.09
2022-09-07 13:03:00,,0833.8,5.01,0.00,30.2,29.2,00.0,39.0,32.1,16.4,0003.8,0027.55,0014.34,0012.09
2022-09-07 13:04:00,,0833.9,4.99,0.00,30.3,29.2,00.0,39.0,32.1,16.5,0003.6,0027.18,0014.33,0012.05
2022-09-07 13:05:00,,0833.8,5.00,0.00,30.3,29.2,00.0,39.0,32.1,16.6,0003.6,0026.68,0014.12,0011.86
2022-09-07 13:06:00,,0833.9,5.00,0.00,30.3,29.3,00.0,39.1,32.1,16.6,0003.7,0027.23,0013.85,0011.63
2022-09-07 13:07:00,,0833.9,5.01,0.00,30.3,29.3,00.0,39.1,32.2,16.4,0003.2,0027.56,0013.68,0011.49
2022-09-07 13:08:00,,0833.9,4.99,0.00,30.4,29.3,00.0,39.1,32.2,16.4,0002.5,0027.19,0013.54,0011.37
2022-09-07 13:09:00,,0833.9,5.01,0.00,30.4,29.4,00.0,39.1,32.2,16.3,0001.9,0027.08,0013.40,0011.23
2022-09-07 13:10:00,,0833.9,4.98,0.00,30.4,28.9,00.0,39.1,32.2,16.3,0001.4,0026.76,0013.23,0011.10
2022-09-07 13:11:00,,0833.9,5.00,0.00,30.4,27.3,00.0,39.1,32.0,16.3,0001.4,0028.35,0013.17,0011.07
2022-09-07 13:12:00,,0833.9,5.00,0.00,30.2,26.4,00.0,39.1,31.8,16.3,0001.3,0028.23,0013.15,0011.07
2022-09-07 13:13:00,,0833.9,5.01,0.00,30.2,26.5,00.0,39.0,31.7,16.3,0001.6,0027.20,0013.21,0011.14
2022-09-07 13:14:00,,0833.9,4.99,0.00,30.1,26.8,00.0,38.9,31.6,16.5,0001.9,0026.73,0013.29,0011.19
2022-09-07 13:15:00,,0833.8,5.00,0.00,30.0,27.2,00.0,38.9,31.6,16.6,0001.7,0026.91,0013.20,0011.13
2022-09-07 13:16:00,,0833.9,4.99,0.00,30.0,27.5,00.0,38.8,31.6,16.4,0001.6,0027.47,0013.38,0011.33
2022-09-07 13:17:00,,0833.9,5.01,0.00,30.0,27.8,00.0,38.8,31.6,16.3,0001.4,0026.47,0013.62,0011.60
2022-09-07 13:18:00,,0833.9,5.01,0.00,29.9,28.0,00.0,38.8,31.6,16.2,0001.8,0026.51,0013.83,0011.82
2022-09-07 13:19:00,,0833.9,5.01,0.00,29.9,28.2,00.0,38.8,31.7,16.2,0002.2,0027.06,0013.99,0012.04
2022-09-07 13:20:00,,0834.0,5.00,0.00,29.9,28.4,00.0,38.8,31.7,16.0,0002.6,0028.45,0014.20,0012.29
2022-09-07 13:21:00,,0834.0,4.99,0.00,29.9,28.5,00.0,38.8,31.7,15.6,0003.0,0029.48,0014.60,0012.67
2022-09-07 13:22:00,,0834.0,5.00,0.00,30.0,28.6,00.0,38.8,31.7,15.6,0002.5,0028.84,0015.01,0013.08
2022-09-07 13:23:00,,0834.0,5.00,0.00,30.0,28.7,00.0,38.8,31.7,15.1,0002.6,0029.71,0015.45,0013.55
2022-09-07 13:24:00,,0834.0,5.00,0.00,30.0,28.8,00.0,38.8,31.8,15.2,0002.7,0031.00,0015.87,0014.00
2022-09-07 13:25:00,,0834.0,4.99,0.00,30.0,28.8,00.0,38.8,31.8,15.1,0002.5,0032.09,0016.27,0014.49
2022-09-07 13:26:00,,0834.0,5.01,0.00,30.0,28.9,00.0,38.8,31.9,15.1,0002.6,0033.07,0016.95,0015.16
2022-09-07 13:27:00,,0834.0,4.99,0.00,30.0,28.9,00.0,38.8,31.9,15.2,0002.6,0033.33,0017.41,0015.65
2022-09-07 13:28:00,,0834.0,5.01,0.00,30.1,29.0,00.0,38.8,31.9,15.2,0002.9,0034.12,0017.80,0016.04
2022-09-07 13:29:00,,0834.0,5.00,0.00,30.1,29.0,00.0,38.8,31.9,15.2,0003.0,0034.24,0018.15,0016.40
2022-09-07 13:30:00,,0834.0,5.00,0.00,30.1,29.0,00.0,38.9,32.0,15.2,0003.2,0033.46,0018.44,0016.72
2022-09-07 13:31:00,,0834.0,5.00,0.00,30.1,29.1,00.0,38.9,32.0,15.3,0003.2,0032.23,0018.65,0016.95
2022-09-07 13:32:00,,0834.0,5.00,0.00,30.2,29.1,00.0,38.9,32.0,15.4,0003.2,0031.51,0018.69,0017.06
2022-09-07 13:33:00,,0834.0,4.99,0.00,30.2,29.2,00.0,38.9,32.0,15.4,0003.9,0031.66,0018.58,0017.06
2022-09-07 13:34:00,,0834.0,5.01,0.00,30.2,29.2,00.0,38.9,32.1,15.5,0003.8,0030.85,0018.41,0016.91
2022-09-07 13:35:00,,0834.0,4.99,0.00,30.2,29.2,00.0,39.0,32.1,15.4,0003.5,0030.10,0018.26,0016.76
2022-09-07 13:36:00,,0834.0,5.02,0.00,30.3,29.2,00.0,39.0,32.1,15.5,0003.6,0028.83,0018.14,0016.64
2022-09-07 13:37:00,,0834.1,4.99,0.00,30.3,29.3,00.0,39.0,32.1,15.7,0003.7,0027.68,0017.89,0016.39
2022-09-07 13:38:00,,0834.0,5.01,0.00,30.3,29.3,00.0,39.0,32.2,15.6,0003.3,0028.27,0017.65,0016.14
2022-09-07 13:39:00,,0834.0,5.00,0.00,30.3,29.3,00.0,39.0,32.2,15.8,0003.2,0029.03,0017.48,0015.91
2022-09-07 13:40:00,,0834.0,5.00,0.00,30.4,29.4,00.0,39.1,32.2,16.1,0003.2,0028.68,0016.99,0015.46
2022-09-07 13:41:00,,0834.0,5.00,0.00,30.4,29.4,00.0,39.1,32.2,16.1,0002.8,0028.48,0016.48,0014.90
2022-09-07 13:42:00,,0834.0,5.00,0.00,30.4,29.0,00.0,39.1,32.2,16.0,0002.5,0028.81,0016.07,0014.43
2022-09-07 13:43:00,,0834.0,4.98,0.00,30.4,27.5,00.0,39.1,32.1,15.8,0001.9,0028.78,0015.76,0014.11
2022-09-07 13:44:00,,0834.0,5.02,0.00,30.3,26.7,00.0,39.0,32.0,15.8,0001.5,0027.86,0015.49,0013.79
2022-09-07 13:45:00,,0834.0,4.99,0.00,30.2,26.9,00.0,39.0,31.9,15.8,0001.5,0028.29,0015.36,0013.57
2022-09-07 13:46:00,,0834.0,5.00,0.00,30.1,27.2,00.0,38.9,31.8,16.0,0001.6,0028.33,0015.20,0013.34
2022-09-07 13:47:00,,0834.0,5.01,0.00,30.1,27.6,00.0,38.9,31.7,16.2,0001.6,0028.95,0014.96,0012.97
2022-09-07 13:48:00,,0834.0,5.00,0.00,30.1,27.9,00.0,38.9,31.7,16.2,0001.5,0028.58,0014.66,0012.74
2022-09-07 13:49:00,,0834.0,5.00,0.00,30.0,28.1,00.0,38.9,31.8,16.2,0002.1,0027.54,0014.51,0012.57
2022-09-07 13:50:00,,0834.0,5.01,0.00,30.0,28.3,00.0,38.9,31.7,16.4,0002.8,0026.48,0014.30,0012.36
2022-09-07 13:51:00,,0834.0,5.00,0.00,30.0,28.5,00.0,38.8,31.8,16.5,0002.8,0026.52,0014.34,0012.37
2022-09-07 13:52:00,,0834.0,4.98,0.00,30.0,28.6,00.0,38.8,31.8,16.8,0002.4,0027.28,0014.32,0012.36
2022-09-07 13:53:00,,0834.0,5.01,0.00,30.1,28.7,00.0,38.9,31.9,16.7,0002.8,0027.95,0014.23,0012.23
2022-09-07 13:54:00,,0834.0,4.99,0.00,30.1,28.8,00.0,38.9,31.9,16.8,0004.0,0028.95,0014.08,0012.05
2022-09-07 13:55:00,,0834.0,5.01,0.00,30.1,28.9,00.0,38.9,31.9,16.9,0003.9,0029.97,0013.90,0011.76
2022-09-07 13:56:00,,0834.0,4.98,0.00,30.1,28.9,00.0,38.9,31.9,16.9,0003.8,0029.65,0013.47,0011.36
2022-09-07 13:57:00,,0834.0,5.01,0.00,30.1,29.0,00.0,38.9,32.0,16.9,0004.1,0029.38,0012.98,0010.94
2022-09-07 13:58:00,,0834.0,4.99,0.00,30.1,29.0,00.0,38.9,32.0,16.9,0004.2,0028.10,0012.66,0010.69
2022-09-07 13:59:00,,0833.9,5.01,0.00,30.2,29.1,00.0,38.9,32.0,16.9,0004.3,0027.83,0012.29,0010.30
